Flag for U.S.A. Weather past 2 weeks in Prudhoe Bay, Alaska, U.S.A.

Now
-25 °F

Clear.


Feels Like: -43 °F
Forecast: -20 / 17 °F
Wind: 7 mph from East

Location: Deadhorse Airport

Current Time: Jan 30, 2015 at 12:52:38 AM

Latest Report: Jan 29, 2015 at 11:53 PM


Visibility: 10 mi

Pressure: 30.58 "Hg

Humidity: 68%

Dew point: -32 °F

Location of Prudhoe BayLocation

Historic Weather in Prudhoe Bay — Graph

°F

Prudhoe Bay temperature yesterday

Maximum temperature yesterday: -21 °F (at 5:53 PM)
Minimum temperature yesterday: -29 °F (at 10:53 AM)
Average temperature yesterday: -25 °F

Past Weeks' High & Low Weather Summary

 TemperatureHumidityPressure
High0 °F (Jan 21, 12:53 AM)82% (Jan 19, 2:53 PM)30.66 "Hg (Jan 19, 2:53 PM)
Low-29 °F (Jan 25, 1:53 AM)64% (Jan 24, 2:53 PM)29.34 "Hg (Jan 15, 10:53 PM)
Average-13 °F72%29.92 "Hg
* Reported Jan 14 11:53 PM — Jan 29 11:53 PM, Prudhoe Bay, Weather by CustomWeather, © 2014

Note: Actual official high and low records may vary slightly from our data, if they occured in-between our weather recording intervals... More about our weather records

Advertising

Prudhoe Bay weather history for previous 24 hours

 ConditionsComfort  
Time TempWeatherWind HumidityBarometerVisibility
11:53 PM
Jan 29
-25 °FClear.7 mph68%30.58 "Hg10 mi
10:53 PM-22 °FClear.7 mph69%30.60 "Hg10 mi
9:53 PM-21 °FClear.No wind65%30.63 "Hg10 mi
8:53 PM-24 °FClear.5 mph73%30.62 "Hg10 mi
7:53 PM-23 °FClear.8 mph69%30.64 "Hg10 mi
6:53 PM-23 °FClear.8 mph69%30.66 "Hg10 mi
5:53 PM-21 °FClear.13 mph65%30.66 "Hg10 mi
4:53 PM-23 °FClear.13 mph65%30.66 "Hg10 mi
3:53 PM-24 °FPassing clouds.10 mph64%30.66 "Hg10 mi
2:53 PM-25 °FScattered clouds.10 mph65%30.66 "Hg10 mi
1:53 PM-26 °FScattered clouds.10 mph68%30.66 "Hg10 mi
12:53 PM-28 °FScattered clouds.8 mph67%30.66 "Hg10 mi
11:53 AM-29 °FSunny.9 mph68%30.65 "Hg10 mi
10:53 AM-29 °FClear.10 mph68%30.64 "Hg10 mi
9:53 AM-28 °FClear.10 mph67%30.64 "Hg10 mi
8:53 AM-28 °FClear.10 mph67%30.63 "Hg10 mi
7:53 AM-27 °FClear.10 mph68%30.63 "Hg10 mi
6:53 AM-27 °FClear.12 mph68%30.62 "Hg10 mi
5:53 AM-27 °FClear.10 mph68%30.62 "Hg10 mi
4:53 AM-26 °FClear.13 mph68%30.61 "Hg10 mi
3:53 AM-25 °FClear.12 mph68%30.61 "Hg10 mi
2:53 AM-25 °FPassing clouds.12 mph68%30.60 "Hg10 mi
1:53 AM-25 °FClear.12 mph68%30.59 "Hg10 mi
12:53 AM-25 °FClear.12 mph68%30.58 "Hg10 mi
Weather by CustomWeather, © 2014

See weather overviewHow to use our weather pages